Regional Weather Roundup
Issued by NWS

Home | Current Version | Previous Version | Graphics & Text | Print | Product List | Glossary On
Versions: 1 2 3 4 5 6 7 8 9 10 11 12 13 14 15 16 17 18 19 20 21 22 23 24 25 26 27 28 29 30 31 32 33 34 35 36 37 38 39 40 41 42 43 44 45 46 47 48 49 50
000
ASUS43 KOAX 252010
RWRNE

WEATHER ROUNDUP FOR NEBRASKA
NATIONAL WEATHER SERVICE OMAHA NE
200 PM CST THU DEC 25 2014

NOTES: SATELLITE DATA IS BEING USED TO AUGMENT CLOUD COVER ABOVE
       12000 FEET.
       "FAIR" INDICATES FEW OR NO CLOUDS BELOW 12,000 FEET WITH NO
       SIGNIFICANT WEATHER AND/OR OBSTRUCTIONS TO VISIBILITY.

  * THESE STATIONS DO NOT REPORT WEATHER SUCH AS RAIN...SNOW OR FOG.

NEZ001>004-019>022-054>056-252100-
NEBRASKA PANHANDLE

CITY           SKY/WX    TMP DP  RH WIND       PRES   REMARKS
SCOTTSBLUFF    HVY SNOW  29  27  92 N13       29.60R VSB 1/4 WCI  19
ALLIANCE       LGT SNOW  29  27  92 N18       29.58R VSB 1   WCI  16
CHADRON        CLOUDY    29  26  89 NE18G29   29.67R FOG     WCI  16
KIMBALL        LGT SNOW  29  26  92 N16G23    29.51R VSB 3/4 WCI  17
SIDNEY         LGT SNOW  30  26  85 N21       29.52R FOG     WCI  17
$$

NEZ057>060-069>072-079>082-252100-
SOUTHWEST NEBRASKA

CITY           SKY/WX    TMP DP  RH WIND       PRES   REMARKS
NORTH PLATTE   SUNNY     40  27  59 N18       29.48R WCI  31
IMPERIAL       SUNNY     42  28  57 NE21      29.46R
LEXINGTON      SUNNY     39  26  58 NE8       29.48R WCI  34
MCCOOK         SUNNY     41  23  48 NE12      29.45S
OGALLALA       MOSUNNY   38  28  67 N25G32    29.48R WCI  26
$$

NEZ005>010-023>029-035>040-094-252100-
NORTH CENTRAL NEBRASKA

CITY           SKY/WX    TMP DP  RH WIND       PRES   REMARKS
VALENTINE      LGT SNOW  31  28  89 N21G29    29.63R FOG     WCI  18
AINSWORTH      FOG       31  30  97 N20G25    29.58S VSB 1/4 WCI  18
BROKEN BOW     SUNNY     40  26  57 NE13      29.48S WCI  32
O`NEILL        MOSUNNY   33  30  86 N17       29.57S WCI  23
ORD            SUNNY     41  25  53 E8        29.50S
THEDFORD       CLOUDY    33  29  83 N20G29    29.54S WCI  22
$$

NEZ041-046>049-061>064-073>077-083>087-252100-
SOUTH CENTRAL NEBRASKA

CITY           SKY/WX    TMP DP  RH WIND       PRES   REMARKS
GRAND ISLAND   SUNNY     44  26  49 S8        29.51F
AURORA         SUNNY     44  28  53 S12G17    29.51S
HASTINGS       SUNNY     44  25  47 S10       29.48F
HEBRON         SUNNY     48  26  42 S15G23    29.52F
HOLDREGE       SUNNY     41  23  48 SE6       29.46R
KEARNEY *      SUNNY     45  23  42 E8        29.48R
YORK           SUNNY     45  30  57 S15       29.52F
$$

NEZ011>018-030>034-042>045-252100-
NORTHEAST NEBRASKA

CITY           SKY/WX    TMP DP  RH WIND       PRES   REMARKS
NORFOLK        MOSUNNY   41  30  65 SE7       29.55S
ALBION         SUNNY     41  28  60 SE6       29.54R
BLAIR          SUNNY     46  32  57 SE13      29.58S
COLUMBUS *     SUNNY     45  30  57 S13       29.56S
FREMONT        SUNNY     47  33  57 SE12G17   29.57F
TEKAMAH        SUNNY     45  35  68 SE14      29.59F
WAYNE          SUNNY     41  32  69 SE9       29.58F
$$

NEZ050>053-065>068-078-088>093-252100-
SOUTHEAST NEBRASKA

CITY           SKY/WX    TMP DP  RH WIND       PRES   REMARKS
LINCOLN        SUNNY     49  30  48 S18G29    29.56F
OMAHA EPPLEY   MOSUNNY   48  31  51 S18G28    29.60F
BEATRICE       SUNNY     50  29  44 S18G25    29.54F
FALLS CITY     SUNNY     52  31  44 S16G30    29.60F
NEBRASKA CITY  SUNNY     49  29  47 S17       29.59S
PLATTSMOUTH    SUNNY     47  33  59 SE15      29.59S
$$

NEZ044-045-051>053-067-252100-
OMAHA AREA

CITY           SKY/WX    TMP DP  RH WIND       PRES   REMARKS
OMAHA EPPLEY   MOSUNNY   48  31  51 S18G28    29.60F
BLAIR          SUNNY     46  32  57 SE13      29.58S
FREMONT        SUNNY     47  33  57 SE12G17   29.57F
MILLARD        SUNNY     47  34  60 SE13      29.58F
OFFUTT AFB     SUNNY     47  33  57 S14       29.59F
PLATTSMOUTH    SUNNY     47  33  59 SE15      29.59S
WAHOO          FAIR      47  33  59 SE16      29.56F
$$


USA.gov is the U.S. government's official web portal to all federal, state and local government web resources and services.